Anaktuvuk Pass, AK

11:41 AM AKST on December 07, 2016 (GMT -0900)
Anaktuvuk Pass

Weather History for PAKP - September, 2012

Change the Weather History Date:

Saturday, September 15, 2012

  Actual Average Record
Temperature  
Mean Temperature 32 °F -  
Max Temperature 35 °F 37 °F 60 °F (2006)
Min Temperature 28 °F 25 °F 15 °F (2008)
Degree Days  
Heating Degree Days 34    
Moisture  
Dew Point 26 °F    
Average Humidity 81    
Maximum Humidity 87    
Minimum Humidity 70    
Precipitation  
Precipitation 0.00 in - - ()
Sea Level Pressure  
Sea Level Pressure 29.71 in    
Wind  
Wind Speed 3 mph (SE)    
Max Wind Speed 6 mph    
Max Gust Speed -    
Visibility 7 miles    
Events      
Averages and records for this station are not official NWS values.
T = Trace of Precipitation, MM = Missing Value Source: NWS Daily Summary

Daily Weather History Graph

Daily Weather History Graph

Search for Another Location

Airport or City:

Trip Planner

Search our weather history database for the weather conditions in past years. The results will help you decide how hot, cold, wet, or windy it might be!

Date:

Astronomy

Sep. 15, 2012 Rise Set
Actual Time 7:25 AM AKDT 8:35 PM AKDT
Civil Twilight 6:27 AM AKDT 9:33 PM AKDT
Nautical Twilight 5:11 AM AKDT 10:48 PM AKDT
Astronomical Twilight 3:13 AM AKDT 12:39 AM AKDT
Moon 7:26 AM AKDT (9/15) 7:37 PM AKDT (9/15)
Length of Visible Light 15h 05m
Length of Day
13h 09m
Waning Crescent, 0% of the Moon is Illuminated
Sep 15
Waning Crescent
Sep 15
New
Sep 22
First Quarter
Sep 29
Full
Oct 7
Last Quarter

Hourly Weather History & Observations

Time (AKDT) Temp. Windchill Dew Point Humidity Pressure Visibility Wind Dir Wind Speed Gust Speed Precip Events Conditions
12:16 AM 30.2 °F 25.4 °F 26.6 °F 86% 29.72 in 10.0 mi NE 4.6 mph - N/A   Overcast
12:36 AM 30.2 °F 26.7 °F 26.6 °F 86% 29.72 in 5.0 mi NNE 3.5 mph - N/A   Overcast
12:56 AM 30.2 °F 25.4 °F 26.6 °F 86% 29.72 in 7.0 mi NNE 4.6 mph - N/A   Overcast
1:16 AM 30.2 °F 25.4 °F 26.6 °F 86% 29.72 in 3.0 mi NE 4.6 mph - N/A   Overcast
1:36 AM 30.2 °F 25.4 °F 26.6 °F 86% 29.72 in 5.0 mi NE 4.6 mph - N/A   Overcast
1:56 AM 30.2 °F 25.4 °F 26.6 °F 86% 29.73 in 8.0 mi NE 4.6 mph - N/A   Overcast
2:16 AM 30.2 °F 26.7 °F 26.6 °F 86% 29.73 in 2.0 mi NNE 3.5 mph - N/A   Overcast
2:36 AM 30.2 °F 26.7 °F 26.6 °F 86% 29.73 in 1.8 mi NE 3.5 mph - N/A   Overcast
2:56 AM 30.2 °F 25.4 °F 26.6 °F 86% 29.73 in 1.0 mi NNE 4.6 mph - N/A   Overcast
3:16 AM 30.2 °F 24.3 °F 26.6 °F 86% 29.73 in 0.8 mi NE 5.8 mph - N/A   Overcast
3:36 AM 30.2 °F 25.4 °F 26.6 °F 86% 29.72 in 1.0 mi NE 4.6 mph - N/A   Overcast
3:56 AM 30.2 °F 25.4 °F 26.6 °F 86% 29.72 in 5.0 mi NE 4.6 mph - N/A   Overcast
4:16 AM 30.2 °F 25.4 °F 24.8 °F 80% 29.72 in 10.0 mi NE 4.6 mph - N/A   Overcast
4:36 AM 28.4 °F 24.6 °F 24.8 °F 86% 29.72 in 10.0 mi NNE 3.5 mph - N/A   Overcast
4:56 AM 28.4 °F - 24.8 °F 86% 29.72 in 10.0 mi Calm Calm - N/A   Overcast
5:16 AM 28.4 °F 23.3 °F 24.8 °F 86% 29.72 in 10.0 mi North 4.6 mph - N/A   Overcast
5:36 AM 28.4 °F 24.6 °F 24.8 °F 86% 29.72 in 1.8 mi North 3.5 mph - N/A   Overcast
5:56 AM 28.4 °F - 24.8 °F 86% 29.73 in 0.5 mi Calm Calm - N/A   Overcast
6:16 AM 28.4 °F - 24.8 °F 86% 29.72 in 0.2 mi Calm Calm - N/A   Overcast
6:36 AM 28.4 °F - 24.8 °F 86% 29.72 in 0.5 mi Calm Calm - N/A   Overcast
6:56 AM 28.4 °F 24.6 °F 24.8 °F 86% 29.72 in 0.2 mi NE 3.5 mph - N/A   Overcast
7:16 AM 28.4 °F - 24.8 °F 86% 29.72 in 0.2 mi Calm Calm - N/A   Overcast
7:36 AM 28.4 °F - 24.8 °F 86% 29.72 in 0.5 mi Calm Calm - N/A   Overcast
7:56 AM 28.4 °F - 24.8 °F 86% 29.72 in 0.5 mi Calm Calm - N/A   Overcast
8:16 AM 28.4 °F - 24.8 °F 86% 29.72 in 0.2 mi Calm Calm - N/A   Overcast
8:36 AM 28.4 °F - 24.8 °F 86% 29.72 in 0.2 mi Calm Calm - N/A   Overcast
8:56 AM 28.4 °F - 24.8 °F 86% 29.72 in 0.5 mi Calm Calm - N/A   Overcast
9:16 AM 28.4 °F - 24.8 °F 86% 29.72 in 1.2 mi Calm Calm - N/A   Overcast
9:36 AM 28.4 °F - 24.8 °F 86% 29.72 in 10.0 mi Calm Calm - N/A   Overcast
9:56 AM 28.4 °F - 24.8 °F 86% 29.72 in 10.0 mi Calm Calm - N/A   Overcast
10:16 AM 28.4 °F - 24.8 °F 86% 29.72 in 10.0 mi Calm Calm - N/A   Overcast
10:36 AM 30.2 °F 26.7 °F 26.6 °F 86% 29.73 in 10.0 mi South 3.5 mph - N/A   Overcast
10:56 AM 30.2 °F 25.4 °F 26.6 °F 86% 29.73 in 10.0 mi SSW 4.6 mph - N/A   Overcast
11:16 AM 30.2 °F 25.4 °F 26.6 °F 86% 29.73 in 10.0 mi West 4.6 mph - N/A   Overcast
11:36 AM 30.2 °F 26.7 °F 26.6 °F 86% 29.73 in 10.0 mi South 3.5 mph - N/A   Overcast
11:56 AM 30.2 °F 26.7 °F 26.6 °F 86% 29.73 in 10.0 mi SSE 3.5 mph - N/A   Overcast
12:16 PM 30.2 °F - 26.6 °F 86% 29.73 in 10.0 mi Calm Calm - N/A   Overcast
12:36 PM 30.2 °F 26.7 °F 26.6 °F 86% 29.72 in 10.0 mi SSW 3.5 mph - N/A   Overcast
12:56 PM 32.0 °F 27.5 °F 26.6 °F 80% 29.72 in 9.0 mi South 4.6 mph - N/A   Overcast
1:16 PM 32.0 °F 27.5 °F 28.4 °F 87% 29.72 in 10.0 mi South 4.6 mph - N/A   Overcast
1:36 PM 33.8 °F 29.6 °F 26.6 °F 75% 29.72 in 10.0 mi South 4.6 mph - N/A   Overcast
1:56 PM 33.8 °F 30.8 °F 26.6 °F 75% 29.72 in 10.0 mi South 3.5 mph - N/A   Overcast
2:16 PM 33.8 °F 29.6 °F 28.4 °F 81% 29.72 in 10.0 mi South 4.6 mph - N/A   Overcast
2:36 PM 33.8 °F 29.6 °F 28.4 °F 81% 29.72 in 10.0 mi SSW 4.6 mph - N/A   Overcast
2:56 PM 33.8 °F 29.6 °F 28.4 °F 81% 29.72 in 10.0 mi South 4.6 mph - N/A   Overcast
3:16 PM 33.8 °F 30.8 °F 26.6 °F 75% 29.72 in 10.0 mi SSW 3.5 mph - N/A   Overcast
3:36 PM 33.8 °F - 26.6 °F 75% 29.72 in 10.0 mi Calm Calm - N/A   Overcast
3:56 PM 35.6 °F 31.7 °F 26.6 °F 70% 29.71 in 10.0 mi South 4.6 mph - N/A   Overcast
4:16 PM 33.8 °F 30.8 °F 26.6 °F 75% 29.72 in 10.0 mi SSW 3.5 mph - N/A   Overcast
4:36 PM 35.6 °F - 26.6 °F 70% 29.71 in 10.0 mi Calm Calm - N/A   Overcast
4:56 PM 33.8 °F - 26.6 °F 75% 29.71 in 10.0 mi Calm Calm - N/A   Overcast
5:16 PM 35.6 °F - 26.6 °F 70% 29.71 in 10.0 mi Calm Calm - N/A   Overcast
5:36 PM 35.6 °F 32.8 °F 26.6 °F 70% 29.71 in 10.0 mi SW 3.5 mph - N/A   Overcast
5:56 PM 35.6 °F 32.8 °F 26.6 °F 70% 29.71 in 10.0 mi SW 3.5 mph - N/A   Overcast
6:16 PM 35.6 °F - 28.4 °F 75% 29.71 in 10.0 mi Calm Calm - N/A   Overcast
6:36 PM 33.8 °F 30.8 °F 28.4 °F 81% 29.71 in 10.0 mi SSW 3.5 mph - N/A   Overcast
6:56 PM 33.8 °F - 28.4 °F 81% 29.70 in 10.0 mi Calm Calm - N/A   Overcast
7:16 PM 33.8 °F - 28.4 °F 81% 29.70 in 10.0 mi Calm Calm - N/A   Overcast
7:36 PM 33.8 °F - 26.6 °F 75% 29.69 in 10.0 mi Calm Calm - N/A   Overcast
7:56 PM 33.8 °F - 26.6 °F 75% 29.69 in 10.0 mi Calm Calm - N/A   Overcast
8:16 PM 33.8 °F - 26.6 °F 75% 29.69 in 10.0 mi Calm Calm - N/A   Overcast
8:36 PM 33.8 °F 30.8 °F 26.6 °F 75% 29.69 in 10.0 mi SE 3.5 mph - N/A   Overcast
8:56 PM 33.8 °F - 26.6 °F 75% 29.68 in 10.0 mi Calm Calm - N/A   Overcast
9:16 PM 33.8 °F - 26.6 °F 75% 29.68 in 10.0 mi Calm Calm - N/A   Overcast
9:36 PM 33.8 °F - 26.6 °F 75% 29.68 in 10.0 mi Calm Calm - N/A   Overcast
9:56 PM 33.8 °F - 26.6 °F 75% 29.68 in 10.0 mi Calm Calm - N/A   Overcast
10:16 PM 33.8 °F - 26.6 °F 75% 29.67 in 10.0 mi Calm Calm - N/A   Overcast
10:36 PM 33.8 °F - 26.6 °F 75% 29.66 in 10.0 mi Calm Calm - N/A   Overcast
10:56 PM 32.0 °F - 26.6 °F 80% 29.66 in 10.0 mi Calm Calm - N/A   Overcast
11:16 PM 33.8 °F - 26.6 °F 75% 29.66 in 10.0 mi Calm Calm - N/A   Overcast
11:36 PM 33.8 °F - 26.6 °F 75% 29.65 in 10.0 mi Calm Calm - N/A   Overcast
11:56 PM 33.8 °F - 26.6 °F 75% 29.65 in 10.0 mi Calm Calm - N/A   Overcast